Location: L�boudou Ouaound�
(15.2497°N, 12.8517°W)
Time: 06:58:55
(UTC+00:00)

Daily predictions for brighter satellites

Satellite Brightness Start Highest point End
(mag) Time Altitude Azimuth Time Altitude Azimuth Time Altitude Azimuth
SEDSat Delta rocket 4.3 18:41:53 10° W 18:47:21 46° NNW 18:52:06 10° NE
Okean-O 2.6 18:52:05 10° SSE 18:56:29 79° ENE 19:00:54 10° N
Atlas Centaur 2 4.4 18:51:19 10° W 18:57:23 28° SW 19:02:28 10° SSE
COSMO-SKYMED 1 3.3 18:55:16 10° N 18:59:31 57° WNW 19:03:46 10° SSW
NOSS 3-2 (C) 4.4 18:55:57 10° SW 19:01:10 45° WNW 19:06:41 10° N
GPS 2-12 Rocket1 3.1 18:57:31 10° WNW 19:02:13 71° NNE 19:06:23 13° E
Cosmos 1300 2.7 19:00:15 10° S 19:03:59 57° E 19:07:44 10° NNE
TELKOM 3 4.1 19:05:27 10° S 19:07:22 23° SE 19:08:05 20° E
Cosmos 1833 Rocket 3.7 19:03:35 10° NNE 19:08:02 24° ENE 19:12:29 10° ESE
Unknown 3.9 19:06:20 10° N 19:08:25 20° NE 19:09:06 18° ENE
deb Ariane 4.3 19:08:38 10° SW 19:11:05 28° SSE 19:16:08 11° ESE
ASTEX 1 4.5 19:06:36 10° N 19:11:24 50° W 19:16:13 10° SSW
SWIFT 2.4 19:08:20 10° W 19:12:35 77° NNW 19:15:39 18° ENE
Lacrosse 5 rocket 2.6 19:10:18 10° NW 19:14:06 43° WSW 19:18:07 10° SSE
Cosmos 2369 Rocket 3.2 19:09:52 10° SSE 19:14:18 24° ESE 19:17:22 15° ENE
Cosmos 1763 Rocket 3.6 19:10:44 10° S 19:15:54 55° ESE 19:21:05 10° NNE
Cosmos 1777 Rocket 4.0 19:10:56 10° N 19:16:01 55° ENE 19:21:05 10° SSE
Cosmos 1076 Rocket 4.5 19:16:46 10° NNE 19:20:20 25° E 19:23:52 10° SE
Cosmos 1812 Rocket 4.3 19:16:04 10° SSW 19:20:22 57° W 19:24:43 10° N
CSL-04 Debris 4.4 19:15:48 10° SSE 19:20:56 45° ENE 19:26:05 10° N
Cosmos 1727 Rocket 4.4 19:18:44 10° SSW 19:24:51 66° W 19:30:58 10° N
Cosmos 192 4.5 19:20:35 10° S 19:25:16 48° ESE 19:29:57 10° NNE
ATLAS 3B R/B 3.4 19:18:57 10° SW 19:25:39 53° WNW 19:32:11 10° NNE
Cosmos 1605 Rocket 4.0 19:23:07 10° N 19:29:13 85° W 19:35:17 10° S
IUS-13 SRM-1 4.3 19:26:22 10° W 19:29:54 49° SSW 19:45:35 10° SE
YAOGAN 1 2.5 19:26:58 10° SSE 19:31:12 58° ENE 19:35:25 10° N
CENTAUR R/B 3.7 19:27:46 10° SW 19:32:43 36° WNW 19:38:12 10° N
USA 215 3.6 19:27:04 10° SSE 19:33:33 66° SW 19:40:03 10° NW
Envisat 3.5 19:28:37 10° S 19:33:38 62° WSW 19:38:38 10° NNW
Cosmos 1943 Rocket 2.4 19:28:32 10° S 19:33:47 46° ESE 19:37:34 18° NE
Cosmos 1814 Rocket 4.1 19:35:53 10° S 19:40:52 50° ESE 19:43:45 24° NE
Cosmos 2082 Rocket 2.8 19:36:17 10° N 19:41:19 33° ENE 19:41:42 32° E
Cosmos 2123 Rocket 4.3 19:35:47 10° SSE 19:41:40 42° E 19:47:30 10° NNE
Cosmos 839 Rocket 4.5 19:35:07 10° NNW 19:42:05 87° ENE 19:50:55 10° SSE
Cosmos 2173 Rocket 4.3 19:40:28 10° NNE 19:46:10 40° E 19:51:47 10° SSE
GPS 2-05 Rocket1 2.8 19:43:42 10° WSW 19:46:02 56° W 19:46:02 56° W
CZ-2C R/B 4.0 19:47:17 43° E 19:47:23 43° E 19:51:51 10° S
Fermi 3.7 19:43:19 10° WSW 19:47:24 68° SSE 19:47:59 58° ESE
Cosmos 1000 Rocket 4.5 19:42:18 10° S 19:48:28 85° W 19:54:41 10° N
CZ-4 R/B 2.6 19:49:04 10° S 19:52:59 44° W 19:56:59 10° NNW
Cosmos-2242 3.3 19:51:32 10° S 19:55:53 70° W 20:00:12 10° N
OAO 2 Rocket 3.9 19:53:01 10° NW 19:58:00 41° NNE 19:58:04 41° NNE
Centaur D-1AR AC-41 2.6 19:52:23 10° W 19:58:18 73° NNW 19:58:49 61° NE
Cosmos 2263 4.4 19:54:17 10° S 19:59:12 46° ESE 19:59:12 46° ESE
Cosmos 44 Rocket 4.0 19:55:18 10° SW 20:00:15 54° WNW 20:03:44 19° N
GPS 2-18 Rocket1 4.2 19:56:44 10° WNW 19:59:59 35° NNW 19:59:59 35° NNW
SL-24 R/B 4.3 20:06:37 22° N 20:09:35 71° WNW 20:13:50 10° SSW
FUSE 3.7 20:05:31 10° WNW 20:10:52 90° N 20:11:07 82° ESE
Cosmos 1461 4.1 20:06:39 10° NNW 20:09:01 33° NNW 20:09:01 33° NNW
Cosmos 2100 Rocket 3.8 20:09:10 10° N 20:15:19 88° E 20:21:28 10° S
Ariane Rocket 4.5 20:19:19 25° N 20:19:19 25° N 20:21:22 10° N
USA 234 3.1 20:16:59 62° E 20:17:46 67° SE 20:24:14 10° SSW
Skynet4D Del rocket 3.6 20:13:34 10° WSW 20:19:04 79° SSE 20:19:04 79° SSE
BREEZE-M DEB (TANK) 4.5 20:18:51 10° NW 20:37:17 69° NNE 20:37:17 69° NNE
ATLAS 5 CENTAUR R/B 3.4 20:33:51 10° WSW 20:40:34 86° SSE 20:46:00 52° ENE
ADEOS Rocket 3.9 20:55:31 37° NNW 20:57:51 51° WNW 21:04:03 10° SSW
Cosmos 2369 Rocket 4.0 20:53:22 10° SW 20:58:02 26° WNW 20:59:17 24° NW
H-II Stage 2 4.3 19:38:22 10° WSW 21:00:03 69° NNW 21:01:19 64° N
CZ-3B R/B 4.5 21:45:03 10° WNW 22:05:37 65° SW 22:05:37 65° SW
